Location: Pasadena-CA
(34.1440°N, 118.1100°W)
Time: 16:33:18
(UTC-08:00)

X-37B - Visible Passes

Search period start: 26 January 2022 00:00
Search period end: 05 February 2022 00:00
Orbit: 334 x 337 km, 45.0° (Epoch: 11 January)

Date Brightness Start Highest point End Pass type
(mag) Time Alt. Az. Time Alt. Az. Time Alt. Az.
26 Jan 0.9 18:23:33 10° WSW 18:26:19 50° NNW 18:27:26 29° NNE visible
27 Jan 2.2 18:44:39 10° WNW 18:46:55 21° NNW 18:47:10 21° NNW visible
28 Jan 3.3 19:06:19 10° NW 19:06:51 12° NNW 19:06:51 12° NNW visible
29 Jan 2.3 17:50:04 10° WNW 17:52:21 21° NNW 17:54:37 10° NNE visible
30 Jan 2.9 18:11:43 10° NW 18:13:06 13° NNW 18:14:30 10° NNE visible
04 Feb 2.6 18:19:46 10° NNW 18:21:13 13° NNE 18:21:52 12° NNE visible
